ORANGE GROVE, NALF, TX

7:47 AM CDT on April 21, 2018 (GMT -0500)
Orange Grove Naval Air Landing Field

Weather History for KNOG - July, 2014

Change the Weather History Date:

Monday, July 28, 2014

  Actual Average (KALI) Record (KALI)
Temperature  
Mean Temperature 88 °F -  
Max Temperature 102 °F 95 °F 102 °F (2001)
Min Temperature 75 °F 73 °F 71 °F (2000)
Cooling Degree Days 24    
Growing Degree Days 38 (Base 50)    
Moisture  
Dew Point 73 °F    
Average Humidity 71    
Maximum Humidity 97    
Minimum Humidity 34    
Precipitation  
Precipitation 0.00 in - - ()
Sea Level Pressure  
Sea Level Pressure 30.02 in    
Wind  
Wind Speed 9 mph (SSE)    
Max Wind Speed 20 mph    
Max Gust Speed 28 mph    
Visibility 10 miles    
Events      
Averages and records for this station are not official NWS values.
T = Trace of Precipitation, MM = Missing Value Source: NWS Daily Summary

Daily Weather History Graph

Daily Weather History Graph

Search for Another Location

Airport or City:

Astronomy

Jul. 28, 2014 Rise Set
Actual Time 6:52 AM CDT 8:24 PM CDT
Civil Twilight 6:27 AM CDT 8:49 PM CDT
Nautical Twilight 5:56 AM CDT 9:20 PM CDT
Astronomical Twilight 5:24 AM CDT 9:51 PM CDT
Moon 8:22 AM CDT (7/28) 9:22 PM CDT (7/28)
Length of Visible Light 14h 22m
Length of Day
13h 31m
Waxing Crescent, 3% of the Moon is Illuminated
Jul 28
Waxing Crescent
Aug 3
First Quarter
Aug 10
Full
Aug 17
Last Quarter
Aug 25
New

Hourly Weather History & Observations

Time (CDT) Temp. Heat Index Dew Point Humidity Pressure Visibility Wind Dir Wind Speed Gust Speed Precip Events Conditions
12:56 AM 80.1 °F 85.1 °F 75.0 °F 85% 29.99 in 10.0 mi South 9.2 mph - N/A   Clear
1:56 AM 78.1 °F - 75.0 °F 90% 30.00 in 10.0 mi SSE 5.8 mph - N/A   Clear
2:54 AM 78.8 °F - 75.2 °F 89% 30.05 in 10.0 mi SSE 6.9 mph - N/A   Mostly Cloudy
2:56 AM 78.1 °F - 75.0 °F 90% 29.99 in 10.0 mi SSE 6.9 mph - N/A   Scattered Clouds
3:56 AM 77.0 °F - 75.0 °F 94% 30.00 in 10.0 mi SSE 3.5 mph - N/A   Scattered Clouds
4:56 AM 75.9 °F - 75.0 °F 97% 30.00 in 10.0 mi SE 4.6 mph - N/A   Clear
5:13 AM 77.0 °F - 75.0 °F 94% 30.06 in 10.0 mi SE 4.6 mph - N/A   Mostly Cloudy
5:35 AM 75.9 °F - 75.0 °F 97% 30.06 in 10.0 mi Calm Calm - N/A   Mostly Cloudy
5:56 AM 77.0 °F - 75.9 °F 96% 30.01 in 10.0 mi Calm Calm - N/A   Overcast
6:56 AM 75.9 °F - 75.0 °F 97% 30.02 in 10.0 mi SE 6.9 mph - N/A   Scattered Clouds
7:53 AM 78.1 °F - 77.0 °F 96% 30.03 in 10.0 mi SSE 6.9 mph - N/A   Mostly Cloudy
8:56 AM 82.0 °F 90.2 °F 77.0 °F 85% 30.05 in 10.0 mi South 10.4 mph - N/A   Overcast
9:14 AM 84.0 °F 93.7 °F 77.0 °F 79% 30.11 in 10.0 mi South 12.7 mph - N/A   Overcast
9:31 AM 84.9 °F 95.3 °F 77.0 °F 77% 30.11 in 10.0 mi South 10.4 mph - N/A   Overcast
9:56 AM 86.0 °F 96.0 °F 75.9 °F 72% 30.06 in 10.0 mi South 10.4 mph - N/A   Scattered Clouds
10:56 AM 90.0 °F 97.9 °F 73.0 °F 57% 30.06 in 10.0 mi South 11.5 mph 16.1 mph N/A   Clear
11:56 AM 95.0 °F 104.5 °F 73.0 °F 49% 30.05 in 10.0 mi South 11.5 mph 19.6 mph N/A   Partly Cloudy
12:56 PM 97.0 °F 104.8 °F 71.1 °F 43% 30.03 in 10.0 mi ESE 9.2 mph 19.6 mph N/A   Partly Cloudy
1:56 PM 99.0 °F 105.5 °F 69.1 °F 38% 30.00 in 10.0 mi SSE 9.2 mph - N/A   Partly Cloudy
2:56 PM 100.0 °F 104.9 °F 66.9 °F 34% 29.98 in 10.0 mi SE 12.7 mph 17.3 mph N/A   Scattered Clouds
3:56 PM 102.0 °F 108.8 °F 69.1 °F 34% 29.96 in 10.0 mi South 10.4 mph - N/A   Clear
4:56 PM 100.0 °F 109.3 °F 72.0 °F 40% 29.95 in 10.0 mi SSE 12.7 mph 18.4 mph N/A   Clear
5:56 PM 98.1 °F 107.2 °F 72.0 °F 43% 29.95 in 10.0 mi SSE 19.6 mph 27.6 mph N/A   Partly Cloudy
6:56 PM 93.9 °F 100.3 °F 70.0 °F 46% 29.96 in 10.0 mi SSE 18.4 mph 24.2 mph N/A   Clear
7:56 PM 90.0 °F 93.6 °F 68.0 °F 48% 29.97 in 10.0 mi SE 16.1 mph - N/A   Clear
8:56 PM 86.0 °F 89.4 °F 68.0 °F 55% 29.99 in 10.0 mi SE 15.0 mph - N/A   Clear
9:56 PM 82.9 °F 88.0 °F 72.0 °F 69% 30.00 in 10.0 mi SSE 13.8 mph - N/A   Clear
10:56 PM 82.0 °F 87.9 °F 73.9 °F 76% 30.01 in 10.0 mi SSE 12.7 mph - N/A   Clear
11:56 PM 80.1 °F 84.5 °F 73.9 °F 81% 30.01 in 10.0 mi South 9.2 mph - N/A   Clear